Location: West Cummington
(42.4920°N, 72.9680°W)
Time: 11:22:09
(UTC-04:00)

Daily predictions for brighter satellites

Satellite Brightness Start Highest point End
(mag) Time Altitude Azimuth Time Altitude Azimuth Time Altitude Azimuth
SL-19 R/B 4.4 18:56:35 10° SSE 19:02:10 70° ENE 19:08:08 10° NNW
Cosmos 2297 3.8 18:58:37 10° NNW 19:04:20 88° ENE 19:09:59 10° SSE
Cosmos 2233 Rocket 4.3 19:00:15 10° SSW 19:06:33 77° W 19:12:55 10° N
Cosmos 1805 4.3 19:03:31 10° SE 19:06:42 24° E 19:09:55 10° NE
Cosmos 1953 3.3 19:04:21 10° SE 19:07:40 25° E 19:10:57 10° NNE
ALOS 3.6 19:05:57 10° ESE 19:09:16 20° ENE 19:12:36 10° NNE
ISS -1.1 19:08:45 10° SSE 19:09:51 11° SE 19:10:58 10° ESE
Meteor 1-22 Rocket 4.0 19:05:47 10° S 19:11:06 75° E 19:16:24 10° NNE
USA 215 3.8 19:06:23 10° ENE 19:12:24 38° SE 19:18:22 10° SSW
MSX 4.4 19:07:28 10° S 19:13:09 65° WSW 19:18:54 10° NNW
SKYMED 2 3.8 19:09:26 10° N 19:13:47 77° WNW 19:18:07 10° SSW
Cosmos 2369 Rocket 3.7 19:10:01 10° N 19:13:58 19° NE 19:17:56 10° E
HJ-1C 4.2 19:13:06 10° SE 19:16:04 30° ENE 19:19:04 10° N
Cosmos 1707 4.2 19:12:24 10° NNW 19:16:05 43° W 19:19:44 10° SSW
Cosmos 1408 Rocket 3.8 19:12:23 10° N 19:16:36 47° ENE 19:20:46 10° SSE
Meteor 1-24 Rocket 3.8 19:11:50 10° NNW 19:17:30 83° W 19:22:55 10° S
IDEFIX/ARIANE 42P 4.4 19:14:07 10° SSW 19:18:54 37° W 19:23:46 10° NNW
Cosmos 1603 4.2 19:15:59 10° S 19:21:11 37° ESE 19:26:26 10° NE
NOAA 12 4.1 19:21:22 10° SSE 19:26:36 78° ENE 19:31:55 10° N
Aureole 2 Rocket 3.7 19:25:43 10° SSW 19:30:02 58° WNW 19:34:15 10° NNE
Cosmos 1470 4.2 19:27:33 10° SE 19:30:12 18° E 19:32:50 10° NE
SL-8 R/B 4.4 19:26:27 10° SSW 19:30:46 35° SE 19:34:16 15° E
ATLAS CENTAUR R/B 3.6 19:28:03 10° SW 19:33:01 80° SE 19:49:13 10° NE
SeaSat 1 4.1 19:35:14 14° ESE 19:35:14 14° ESE 19:36:50 10° SE
Cosmos 724 4.4 19:29:21 10° SSW 19:35:07 57° ESE 19:41:04 10° NE
Cosmos 2333 Rocket 4.4 19:31:34 10° WSW 19:36:26 27° NW 19:41:18 10° N
SJ-6B 3.2 19:33:44 10° S 19:37:42 70° WSW 19:41:47 10° NNW
In-Cosmos 22 4.2 19:32:45 10° N 19:38:35 78° E 19:44:19 10° SSE
Resurs 1-3 3.8 19:35:17 10° SSE 19:39:31 50° ENE 19:43:47 10° N
Meteor 1-29 3.4 19:36:43 10° NNE 19:40:04 39° E 19:43:21 10° S
Helios 1A 3.0 19:36:47 10° SSE 19:40:54 59° ENE 19:45:04 10° N
FREGAT/IRIS 2.9 19:38:06 10° S 19:41:10 73° W 19:44:16 10° NNW
TELKOM 3 3.9 19:38:50 10° NW 19:41:33 37° NNE 19:42:22 27° ENE
Resurs 01 Rocket 1.6 19:38:15 10° SSE 19:42:40 70° ENE 19:47:07 10° N
CZ-4B DEB 3.7 19:41:22 21° ESE 19:42:43 29° ENE 19:45:36 10° N
Cosmos 1674 3.5 19:41:08 10° NNE 19:44:36 30° ENE 19:46:24 21° ESE
Cosmos 1743 Rocket 3.8 19:41:29 10° N 19:45:46 46° ENE 19:50:01 10° SSE
NOSS 3-2 (A) 3.9 19:41:01 10° SW 19:47:04 66° NW 19:53:44 10° NNE
FengYun 1-2 T 4.2 19:42:59 10° SSE 19:48:25 64° ENE 19:53:52 10° N
Cosmos 1758 3.3 19:46:30 10° S 19:50:35 85° E 19:54:42 10° N
Cosmos 1452 Rocket 3.6 19:45:37 10° NNW 19:50:53 78° WSW 19:56:08 10° SSE
ATLAS 5 CENTAUR R/B 2.1 19:51:54 10° SW 19:56:40 71° NW 20:01:54 10° NNE
Abrixas 2.8 19:54:26 10° SW 19:57:18 45° SSE 19:57:41 42° ESE
Nadezhda 4 Rocket 3.9 19:53:29 10° N 19:59:46 70° E 20:05:57 10° SSE
Cosmos 1346 2.8 19:58:04 10° N 20:01:03 83° E 20:02:37 25° SSE
Meteor 2-12 Rocket 4.4 19:58:33 10° S 20:04:42 89° ESE 20:10:55 10° N
Meteor 1-21 Rocket 4.2 20:01:52 10° NNW 20:07:27 81° W 20:12:58 10° S
Cosmos 1092 Rocket 4.0 20:01:35 10° N 20:07:44 59° E 20:13:46 10° SSE
GP-B 3.7 20:03:58 10° NNE 20:08:03 34° E 20:08:19 34° E
ASTEX 1 3.3 20:06:22 10° NNE 20:11:15 63° E 20:16:05 10° S
Cosmos 1420 Rocket 4.0 20:06:43 10° NNW 20:12:03 90° NE 20:16:34 15° SSE
Helios 1B rocket 3.1 20:13:16 10° N 20:17:18 57° WNW 20:21:20 10° SSW
SL-16 R/B 4.0 20:12:49 10° WSW 20:17:51 32° NW 20:22:57 10° N
CENTAUR R/B 2.6 20:12:42 10° S 20:18:29 50° ESE 20:24:56 10° NE
Cosmos 1544 3.6 20:16:09 10° SSW 20:19:51 61° W 20:23:34 10° N
Cosmos 2026 Rocket 4.3 20:15:15 10° N 20:21:01 42° ENE 20:22:37 35° ESE
Cosmos 1634 Rocket 4.0 20:17:41 10° S 20:23:46 57° E 20:29:50 10° NNE
CZ-2D R/B 3.2 20:24:44 40° SSE 20:26:03 89° WSW 20:29:59 10° NNW
NOSS 3-2 (C) 4.5 20:20:20 10° WSW 20:26:15 47° NW 20:32:45 10° NNE
H-2A R/B 4.4 20:28:54 12° NNE 20:28:54 12° NNE 20:29:35 10° NNE
OAO 3 Rocket 4.3 20:25:09 10° WSW 20:29:20 31° S 20:30:04 29° S
Cosmos 1048 Rocket 4.0 20:26:22 10° SSW 20:31:41 82° WNW 20:36:57 10° NNE
Cosmos 1269 Rocket 4.3 20:26:59 10° SSW 20:32:14 70° WNW 20:37:32 10° NNE
FENGYUN 3A 3.9 20:29:00 10° S 20:34:20 70° WSW 20:39:45 10° NNW
Envisat 3.7 20:39:20 36° NE 20:39:20 36° NE 20:43:17 10° N
H-2A R/B 3.2 20:39:08 41° SSW 20:40:15 61° W 20:44:06 10° NNW
Cosmos 2195 Rocket 4.4 20:36:42 10° N 20:43:02 72° E 20:45:27 40° SSE
Gbstr 26 Del rocket 3.3 20:38:39 10° SW 20:42:57 62° SSE 20:42:57 62° SSE
Cosmos 2151 3.2 20:39:09 10° N 20:42:41 58° NNE 20:42:41 58° NNE
ISS -1.4 20:42:37 10° WSW 20:44:06 25° WSW 20:44:06 25° WSW
Cosmos 2058 4.3 20:41:54 10° N 20:44:02 28° NNE 20:44:02 28° NNE
ALOS 3.2 20:42:16 12° S 20:46:22 46° W 20:50:53 10° NNW
BREEZE-M DEB (TANK) 3.2 20:40:16 10° WNW 20:51:18 71° N 20:52:03 60° ENE
USA 215 3.5 20:49:37 12° NE 20:55:37 66° NW 21:02:04 10° WSW
Cosmos 158 Rocket 3.8 20:51:56 10° SSW 20:56:49 80° WNW 21:01:43 10° NNE
Cosmos 2369 Rocket 2.2 20:52:58 10° NNW 20:58:38 76° WSW 20:59:45 57° S
Cosmos 1943 Rocket 2.6 20:53:17 10° NNW 20:58:07 47° NE 20:58:07 47° NE
Cosmos 1943 3.2 20:54:11 10° SSW 20:59:49 80° WNW 21:05:29 10° NNE
Cosmos 2263 4.1 20:59:57 10° NNW 21:05:46 90° ENE 21:05:59 84° SSE
SeaSat 1 4.1 21:07:14 10° NNE 21:15:13 24° SW 21:17:06 10° SW
SL-8 R/B 4.3 21:08:23 10° WSW 21:12:17 54° WNW 21:12:17 54° WNW
ERS-1 Rocket 3.4 21:15:21 58° NNW 21:15:21 58° NNW 21:19:24 10° NNW
Cosmos 1110 Rocket 4.4 21:17:46 10° NNW 21:22:20 61° WNW 21:22:20 61° WNW
Cosmos 2279 Rocket 4.4 21:46:26 56° W 21:46:29 57° WNW 21:52:35 10° N
CENTAUR R/B 3.8 22:03:36 10° WSW 22:09:21 37° NW 22:15:48 10° NNE
